Zurück zum Katalog

COSMOS 1275 DEB

AktivPO
NORAD 17637·DEBRIS·🇷🇺 Russia

Gestartet Jun 4, 1981 von Plesetsk Cosmodrome

Loading…

Nächste Überflüge (nächste 24 Stunden)

TLE

AktuellSource: Space-Track

Epoche: Sep 14, 2026, 20:14 UTC

1 17637U 81053LG  26257.84341277  .00000771  00000-0  86449-3 0  9998
2 17637  83.0650 100.7570 0131892 356.7366  20.6599 13.66174394 48825

Verfolge COSMOS 1275 DEB in Echtzeit mit AllMySat

Download on the App Store